Location: Nitra
(0.0000°N, 18.0833°E)
Time: 18:54:01
(UTC+02:00)

A-11 Canister half - Pass Details

Date: 09 April 2023
Orbit: 1526 x 1682 km, 47.3° (Epoch: 08 June)

Event Time Altitude Azimuth Distance (km) Brightness Sun altitude
Rises 10:56:53 0° 238° (WSW) 4,830 11.3 61.0°
Reaches altitude 10° 11:00:15 10° 245° (WSW) 3,864 10.9 61.8°
Maximum altitude 11:09:13 39° 311° (NW) 2,311 10.3 63.9°
Drops below altitude 10° 11:18:24 10° 16° (NNE) 3,930 11.5 66.1°
Sets 11:21:55 0° 24° (NNE) 4,920 11.9 66.9°
